CAPE
0 0 0 0 0 0 0 0 0 0 0 0 0 0 0 0 0 0 0 0 0 0 0 0 0 0 0 0 0 0 0 0 0 0 0 262 441 226 323 600 560 502 640 318 42
0 0 0 0 0 0 0 0 0 0 0 0 0 0 0 0 0 0 0 0 0 0 0 0 0 0 0 0 0 0 0 0 0 0 1 176 363 265 486 556 516 518 382 170 42
10 5 0 0 0 0 0 0 0 0 0 0 0 0 0 0 0 0 0 0 0 0 0 0 0 0 0 0 0 0 0 0 0 0 43 129 251 207 396 276 475 519 356 131 28
0 3 5 0 0 0 0 0 0 0 0 0 0 0 0 0 0 0 0 0 0 0 0 0 0 0 0 0 0 0 0 0 0 2 111 146 91 216 158 251 323 609 306 128 7
0 0 3 6 0 0 0 0 0 0 0 0 0 0 0 0 0 0 0 0 0 0 0 0 0 0 0 0 0 0 0 0 0 0 187 93 45 87 215 423 617 331 107 48 43
0 0 0 2 2 0 0 0 0 0 0 0 0 0 0 0 0 0 0 0 0 0 0 0 0 0 0 0 0 0 0 14 0 124 182 215 196 125 306 315 282 251 63 88 119
0 0 0 1 3 1 0 0 0 0 0 0 0 0 0 0 0 0 0 0 0 0 0 0 0 0 0 0 0 0 4 26 53 139 151 76 92 175 333 117 118 109 30 80 112
0 0 0 0 0 0 0 0 0 0 0 0 0 0 0 0 0 0 0 0 0 0 0 0 0 0 0 0 0 0 0 0 0 13 43 6 91 255 313 76 49 39 40 22 52
1 0 0 0 0 1 0 0 0 0 0 0 0 0 0 0 0 0 0 0 0 0 0 0 0 0 0 0 0 0 0 0 18 58 37 35 60 201 263 108 79 44 0 7 23
4 0 0 0 0 1 0 0 0 0 0 0 0 0 0 0 0 0 0 0 0 0 0 0 0 0 0 0 0 0 0 0 14 52 30 26 24 147 397 263 152 155 120 20 8
2 3 0 0 0 1 0 0 0 0 0 0 0 0 0 0 0 0 0 0 0 0 0 0 0 0 0 0 0 3 1 0 0 0 0 5 12 47 242 419 380 309 290 282 132
4 1 0 0 1 0 0 0 0 0 0 0 0 0 0 0 0 0 0 0 0 0 0 0 0 0 0 0 0 0 1 1 0 0 0 0 0 18 99 266 229 337 325 281 373
3 3 0 0 0 0 0 0 0 0 0 0 0 0 0 0 0 0 0 0 0 0 0 0 0 0 0 0 0 0 0 0 0 0 0 0 0 0 13 101 142 172 308 309 313
2 4 2 0 0 0 0 0 0 0 0 0 0 0 0 0 0 0 0 0 0 0 0 0 0 0 0 0 0 0 0 0 0 0 0 0 0 0 0 60 191 207 235 297 297
6 2 4 0 0 0 0 0 0 0 0 0 0 0 0 0 0 0 0 0 0 0 0 0 0 0 0 0 0 0 0 0 0 0 0 0 0 0 0 7 90 290 242 252 277
8 2 5 0 0 0 0 0 0 0 0 0 0 0 0 0 0 0 0 0 0 0 0 0 0 0 0 0 0 0 0 0 0 0 0 0 0 0 0 0 7 115 316 240 239
14 6 4 0 3 0 0 0 0 0 0 0 0 0 0 0 0 0 0 0 0 0 0 0 0 0 0 0 0 0 0 0 0 0 0 0 0 0 0 0 0 0 61 206 230
5 15 8 5 14 0 5 16 0 0 0 0 0 0 0 0 0 0 0 0 0 0 0 0 0 0 0 0 0 0 0 0 0 0 0 0 0 0 0 0 0 0 0 0 5
8 13 12 15 0 0 13 8 0 0 0 0 0 0 0 0 0 0 0 0 0 0 0 0 0 0 0 0 0 0 0 0 0 0 0 0 0 0 0 0 0 0 0 0 0
6 8 12 22 0 5 8 0 0 0 0 0 0 0 0 0 0 0 0 0 0 0 0 0 0 0 0 0 0 0 0 0 0 0 0 0 0 0 0 0 0 0 0 0 0
26 5 0 28 23 30 1 0 0 0 0 0 0 0 0 0 0 0 0 0 0 0 0 0 0 0 0 0 0 0 0 0 0 0 0 0 0 0 0 0 0 0 0 0 0
5 0 0 11 22 5 1 0 0 0 0 0 0 1 3 0 0 0 0 0 0 0 0 0 0 0 0 0 0 0 0 0 0 0 0 0 0 0 0 0 0 0 0 0 0
0 9 25 0 11 4 0 4 0 0 0 0 0 0 10 8 0 0 0 0 0 0 0 0 0 0 0 0 0 0 0 0 0 0 0 0 0 0 0 0 0 0 0 0 0
1 0 43 19 0 1 15 6 6 0 0 0 0 1 8 14 1 0 0 0 0 0 0 0 0 0 0 0 0 0 0 0 0 0 0 0 0 0 0 0 0 0 0 0 0
2 1 16 2 3 6 7 0 4 0 0 0 0 0 2 3 6 0 0 0 0 0 0 0 0 0 0 0 0 0 0 0 0 0 0 0 0 0 0 0 0 0 0 0 0
0 0 9 7 0 1 10 15 2 0 0 0 0 0 2 3 0 0 0 0 0 0 0 0 0 0 0 0 0 0 0 0 0 0 0 0 0 0 0 0 0 0 0 0 0
1 0 0 4 1 3 1 9 18 5 0 0 0 0 0 0 7 0 0 0 0 0 0 0 0 0 0 0 0 0 0 0 0 0 0 0 0 0 0 0 0 0 0 0 0
CIN
-0 -0 -0 -0 -0 -0 -0 -0 -0 -0 -0 -0 -0 -0 -0 -0 -0 -0 -0 -0 -0 -0 -0 -0 -0 -0 -0 -0 -0 -0 -0 -0 -0 -0 -18 -143 -107 -225 -240 -146 -159 -140 -100 -180 -300
-0 -0 -0 -0 -0 -0 -0 -0 -0 -0 -0 -0 -0 -0 -0 -0 -0 -0 -0 -0 -0 -0 -0 -0 -0 -0 -0 -0 -0 -0 -0 -0 -0 -0 -26 -123 -113 -151 -124 -109 -116 -105 -137 -228 -274
-0 -0 -0 -0 -0 -0 -0 -0 -0 -0 -0 -0 -0 -0 -0 -0 -0 -0 -0 -0 -0 -0 -0 -0 -0 -0 -0 -0 -0 -0 -0 -0 -0 -0 -138 -116 -133 -195 -114 -74 -106 -94 -103 -177 -221
-0 -3 -0 -1 -0 -0 -0 -0 -0 -0 -0 -0 -0 -0 -0 -0 -0 -0 -0 -0 -0 -0 -0 -0 -0 -0 -0 -0 -0 -0 -0 -0 -0 -169 -132 -112 -182 -130 -127 -64 -130 -27 -18 -66 -130
-0 -0 -4 -0 -0 -0 -0 -0 -0 -0 -0 -0 -0 -0 -0 -0 -0 -0 -0 -0 -0 -0 -0 -0 -0 -0 -0 -0 -0 -0 -0 -0 -0 -0 -163 -176 -160 -140 -129 -124 -61 -41 -37 -20 -6
-0 -0 -0 -3 -1 -0 -0 -0 -0 -0 -0 -0 -0 -0 -0 -0 -0 -0 -0 -0 -0 -0 -0 -0 -0 -0 -0 -0 -0 -0 -0 -104 -0 -152 -129 -98 -116 -153 -135 -132 -98 -47 -43 -12 -4
-0 -0 -0 -0 -1 -2 -0 -0 -0 -0 -0 -0 -0 -0 -0 -0 -0 -0 -0 -0 -0 -0 -0 -0 -0 -0 -0 -0 -0 -0 -61 -79 -81 -113 -99 -133 -77 -85 -147 -179 -141 -74 -133 -60 -32
-0 -0 -0 -0 -0 -0 -0 -0 -0 -0 -0 -0 -0 -0 -0 -0 -0 -0 -0 -0 -0 -0 -0 -0 -0 -0 -0 -0 -0 -0 -0 -0 -0 -86 -111 -127 -42 -128 -157 -189 -182 -160 -195 -187 -99
-3 -0 -0 -0 -0 -24 -0 -0 -0 -0 -0 -0 -0 -0 -0 -0 -0 -0 -0 -0 -0 -0 -0 -0 -0 -0 -0 -0 -0 -0 -0 -0 -31 -94 -82 -109 -56 -146 -166 -168 -153 -153 -0 -184 -156
-2 -0 -0 -0 -0 -32 -0 -0 -0 -0 -0 -0 -0 -0 -0 -0 -0 -0 -0 -0 -0 -0 -0 -0 -0 -0 -0 -0 -1 -22 -0 -0 -27 -49 -76 -62 -59 -155 -175 -158 -117 -102 -115 -178 -162
-0 -3 -0 -0 -0 -31 -0 -0 -0 -0 -0 -0 -0 -0 -0 -0 -0 -0 -0 -0 -0 -0 -0 -0 -0 -0 -0 -0 -0 -47 -57 -0 -0 -0 -0 -58 -66 -125 -166 -163 -136 -97 -92 -98 -104
-1 -1 -0 -0 -1 -13 -0 -0 -0 -0 -0 -0 -0 -0 -0 -0 -0 -0 -0 -0 -0 -0 -0 -0 -0 -0 -0 -0 -0 -0 -50 -36 -0 -0 -0 -0 -0 -193 -215 -130 -141 -94 -97 -104 -89
-1 -0 -1 -0 -0 -0 -0 -0 -0 -0 -0 -0 -0 -0 -0 -0 -0 -0 -0 -0 -0 -0 -0 -0 -0 -0 -0 -0 -0 -0 -0 -0 -0 -0 -0 -0 -0 -0 -254 -242 -197 -188 -112 -100 -102
-2 -1 -1 -0 -0 -0 -0 -0 -0 -0 -0 -0 -0 -0 -0 -0 -0 -0 -0 -0 -0 -0 -0 -0 -0 -0 -0 -0 -0 -0 -0 -0 -0 -0 -0 -0 -0 -0 -0 -167 -179 -137 -172 -118 -121
-3 -2 -4 -0 -0 -0 -0 -0 -0 -0 -0 -0 -0 -0 -0 -0 -0 -0 -0 -0 -0 -0 -0 -0 -0 -0 -0 -0 -0 -0 -0 -0 -0 -0 -0 -0 -0 -0 -0 -123 -111 -137 -149 -162 -159
-5 -2 -3 -0 -0 -0 -0 -0 -0 -0 -0 -0 -0 -0 -0 -0 -0 -0 -0 -0 -0 -0 -0 -0 -0 -0 -0 -0 -0 -0 -0 -0 -0 -0 -0 -0 -0 -0 -0 -0 -91 -111 -142 -156 -158
-6 -5 -3 -0 -0 -0 -0 -0 -0 -0 -0 -0 -0 -0 -0 -0 -0 -0 -0 -0 -0 -0 -0 -0 -0 -0 -0 -0 -0 -0 -0 -0 -0 -0 -0 -0 -0 -0 -0 -0 -0 -0 -151 -155 -174
-4 -5 -7 -2 -11 -10 -10 -3 -0 -0 -0 -0 -0 -0 -0 -0 -0 -0 -0 -0 -0 -0 -0 -0 -0 -0 -0 -0 -0 -0 -0 -0 -0 -0 -0 -0 -0 -0 -0 -0 -0 -0 -0 -0 -34
-1 -7 -5 -5 -0 -1 -1 -0 -0 -0 -0 -0 -0 -0 -0 -0 -0 -0 -0 -0 -0 -0 -0 -0 -0 -0 -0 -0 -0 -0 -0 -0 -0 -0 -0 -0 -0 -0 -0 -0 -0 -0 -0 -0 -0
-0 -2 -1 -6 -6 -7 -4 -0 -0 -0 -0 -0 -0 -0 -0 -0 -0 -0 -0 -0 -0 -0 -0 -0 -0 -0 -0 -0 -0 -0 -0 -0 -0 -0 -0 -0 -0 -0 -0 -0 -0 -0 -0 -0 -0
-11 -0 -7 -4 -4 -2 -0 -0 -0 -0 -0 -0 -0 -0 -0 -0 -0 -0 -0 -0 -0 -0 -0 -0 -0 -0 -0 -0 -0 -0 -0 -0 -0 -0 -0 -0 -0 -0 -0 -0 -0 -0 -0 -0 -0
-0 -0 -0 -24 -2 -12 -0 -0 -0 -0 -0 -0 -36 -35 -68 -0 -0 -0 -0 -0 -0 -0 -0 -0 -0 -0 -0 -0 -0 -0 -0 -0 -0 -0 -0 -0 -0 -0 -0 -0 -0 -0 -0 -0 -0
-0 -0 -40 -2 -3 -0 -0 -1 -0 -0 -0 -0 -0 -38 -111 -107 -0 -0 -0 -0 -0 -0 -0 -0 -0 -0 -0 -0 -0 -0 -0 -0 -0 -0 -0 -0 -0 -0 -0 -0 -0 -0 -0 -0 -0
-0 -1 -0 -0 -0 -0 -0 -0 -0 -0 -0 -0 -0 -99 -113 -91 -74 -0 -0 -0 -0 -0 -0 -0 -0 -0 -0 -0 -0 -0 -0 -0 -0 -0 -0 -0 -0 -0 -0 -0 -0 -0 -0 -0 -0
-1 -2 -31 -0 -0 -0 -2 -0 -0 -0 -0 -0 -0 -0 -126 -109 -86 -0 -0 -0 -0 -0 -0 -0 -0 -0 -0 -0 -0 -0 -0 -0 -0 -0 -0 -0 -0 -0 -0 -0 -0 -0 -0 -0 -0
-0 -0 -18 -0 -0 -0 -1 -0 -0 -0 -0 -0 -0 -0 -171 -93 -0 -0 -0 -0 -0 -0 -0 -0 -0 -0 -0 -0 -0 -0 -0 -0 -0 -0 -0 -0 -0 -0 -0 -0 -0 -0 -0 -0 -0
-0 -0 -0 -10 -0 -0 -1 -2 -1 -1 -0 -0 -0 -0 -0 -0 -163 -0 -0 -0 -0 -0 -0 -0 -0 -0 -0 -0 -0 -0 -0 -0 -0 -0 -0 -0 -0 -0 -0 -0 -0 -0 -0 -0 -0
Wind_Speed
29 29 29 29 29 29 30 30 31 32 32 33 35 35 34 34 30 19 18 18 17 14 15 16 16 15 16 15 15 13 15 15 14 15 18 18 16 16 15 13 16 19 16 10 6
29 29 29 29 29 29 30 31 31 32 32 33 34 35 34 34 23 17 16 16 15 15 15 15 16 16 16 15 14 14 14 16 15 17 19 19 16 14 15 14 16 13 9 6 7
32 31 30 29 29 30 30 32 31 31 32 33 34 34 33 28 19 16 18 14 13 14 15 16 17 16 16 15 11 13 14 16 20 21 19 18 16 16 14 17 15 8 5 6 6
34 33 32 31 30 30 31 32 31 32 31 32 33 33 33 20 17 15 18 13 14 15 16 17 17 16 16 15 16 16 18 21 20 17 15 17 14 16 17 19 16 8 5 5 6
35 35 34 33 32 31 31 31 31 32 32 31 32 31 24 20 14 16 16 15 15 15 15 16 16 16 15 14 15 16 19 18 19 11 14 14 16 16 17 15 13 14 8 6 5
34 35 35 34 32 32 31 33 32 31 30 30 29 28 21 20 13 13 14 15 13 14 14 15 14 14 14 13 14 11 14 15 12 10 12 13 16 16 13 13 14 15 17 13 9
32 34 34 34 33 33 32 33 34 32 30 28 25 23 21 13 12 10 12 13 13 13 13 13 14 13 13 12 16 16 12 15 17 18 13 15 12 13 14 14 16 17 15 18 26
31 32 33 32 33 34 33 33 34 34 32 25 20 20 20 13 8 8 8 11 12 11 12 12 12 12 12 16 17 14 13 14 17 15 15 12 13 14 16 14 20 17 16 21 30
30 31 31 32 32 32 33 34 35 31 24 19 20 21 21 14 9 6 5 11 11 11 11 11 11 13 15 13 9 14 14 15 15 19 15 9 13 15 16 19 21 23 24 26 29
32 30 30 30 30 31 31 34 30 22 20 16 21 21 17 10 9 7 6 7 11 11 12 10 11 10 12 9 11 11 14 14 14 14 17 11 12 12 15 17 21 24 25 26 28
31 30 28 29 29 27 27 27 27 25 20 18 17 16 16 14 10 5 6 6 8 11 11 11 10 6 8 10 8 10 14 17 19 19 20 21 7 10 13 17 21 24 25 27 28
32 30 30 30 30 23 23 24 25 24 36 26 14 25 24 14 12 6 3 4 6 8 11 12 10 10 9 11 10 13 17 19 18 19 21 20 21 15 14 19 21 24 27 28 28
33 30 28 29 26 24 25 26 20 25 31 31 19 18 14 9 8 6 3 3 4 7 8 10 13 12 7 8 10 12 19 19 21 18 18 19 17 4 8 19 24 24 28 29 29
33 31 28 26 25 23 25 21 20 18 31 29 21 21 12 9 9 8 4 2 6 7 7 8 10 10 7 10 20 16 15 19 19 16 16 18 17 15 8 8 19 25 26 29 32
34 31 28 24 22 20 16 18 12 15 29 21 18 14 11 10 7 9 7 6 3 6 7 8 8 8 7 7 17 22 18 17 17 16 14 15 15 14 12 6 17 23 26 26 25
37 34 29 28 26 19 15 19 15 23 29 22 14 15 14 17 14 12 8 8 6 3 5 5 9 8 6 13 14 18 19 17 17 16 17 14 14 16 10 14 10 24 25 27 27
37 34 32 29 29 23 20 20 25 31 22 24 20 14 15 19 16 15 11 8 5 1 4 5 3 6 9 11 15 17 17 17 17 16 18 15 15 17 22 26 28 29 13 25 26
37 36 35 33 29 21 18 21 37 30 28 18 19 16 15 18 24 19 13 12 9 4 2 2 3 2 3 8 11 14 15 15 17 16 18 18 19 20 18 18 28 29 29 26 11
38 39 39 36 33 25 25 35 35 26 20 29 23 22 19 21 25 21 18 13 11 6 2 2 3 6 6 9 10 12 16 16 16 20 22 19 23 26 17 21 20 16 16 27 28
40 40 44 34 32 30 33 39 33 24 24 23 32 22 22 22 26 25 18 22 15 10 7 3 5 5 6 9 13 14 9 17 18 23 25 21 22 24 23 21 19 17 17 17 17
38 43 39 35 34 39 44 39 33 30 28 27 26 29 25 24 28 29 28 22 14 11 11 7 7 7 7 3 4 12 15 17 15 16 24 24 23 12 18 22 19 20 19 19 19
34 47 35 33 46 43 49 37 32 34 29 28 25 26 26 24 29 30 32 24 12 10 11 7 7 6 3 15 14 14 19 16 23 22 20 29 26 18 17 20 21 23 22 19 16
31 39 32 37 53 49 47 43 36 33 34 30 29 28 22 24 27 32 30 23 16 11 11 8 14 9 9 8 15 15 19 21 19 21 16 27 17 14 20 22 23 26 26 23 19
29 40 35 44 59 57 48 46 45 38 36 33 29 31 26 26 23 27 28 22 17 15 13 10 13 14 12 8 11 12 16 18 20 24 28 29 30 17 24 26 29 29 28 26 24
33 34 37 55 62 63 53 47 46 43 40 35 38 37 32 31 27 29 23 22 20 18 15 11 15 11 12 10 7 8 14 9 12 21 23 33 27 23 23 25 27 26 25 23 22
36 30 38 44 58 66 56 55 48 46 38 43 42 40 40 36 31 25 20 22 24 21 17 17 20 14 15 12 8 10 13 12 10 19 26 32 32 25 25 25 23 21 19 18 17
39 29 36 54 54 59 68 55 51 44 48 39 38 32 38 45 38 29 28 27 23 22 22 18 15 15 17 14 13 8 8 9 14 18 23 30 31 24 23 22 20 17 15 14 13
Wind_Direction
309 311 314 316 319 323 326 328 330 334 336 338 340 341 341 341 347 12 20 26 37 60 64 63 62 64 63 42 353 349 300 287 288 297 300 310 318 315 324 318 306 295 296 322 346
306 308 311 314 316 320 322 325 329 331 334 336 338 339 339 339 360 14 25 36 53 66 58 64 65 71 63 53 348 306 298 275 281 298 305 308 320 329 326 322 309 325 356 3 14
301 303 307 310 314 316 320 321 326 329 333 335 337 339 338 346 0 17 21 42 68 67 68 65 75 75 63 65 14 315 308 283 265 280 305 320 326 318 338 312 316 338 10 16 14
300 301 301 304 308 312 316 318 324 326 332 334 334 337 334 358 1 19 14 61 75 71 75 71 71 72 72 128 147 206 234 262 286 315 330 337 348 325 329 315 323 16 11 36 35
297 298 300 301 303 307 312 316 320 319 326 331 333 336 350 347 357 12 32 68 73 76 78 71 67 75 100 155 204 179 266 261 237 30 349 2 350 338 348 353 24 27 23 34 57
296 296 297 299 302 305 309 308 314 318 324 328 332 336 345 340 6 27 47 64 73 83 78 73 63 82 100 122 120 156 201 228 25 23 354 22 17 341 11 28 32 48 63 72 73
299 296 297 298 300 301 304 306 306 315 319 325 333 340 336 340 8 31 49 50 81 83 74 76 61 59 74 112 243 226 336 165 129 109 40 53 280 288 55 57 54 73 61 81 157
299 300 296 298 298 299 300 304 305 306 311 321 333 336 327 348 6 2 40 41 78 84 74 69 56 45 69 229 276 310 292 253 194 91 69 107 230 28 78 77 98 83 87 112 146
298 300 300 297 300 301 301 302 304 311 314 320 320 317 318 335 338 355 59 35 61 69 74 71 45 4 340 4 8 308 282 253 243 139 82 105 306 81 97 122 134 144 135 142 152
293 297 299 300 301 304 306 304 310 316 319 324 308 311 308 330 337 354 35 53 44 56 52 68 51 2 346 30 87 339 286 272 272 265 245 29 358 80 112 124 148 162 162 164 165
287 293 297 300 302 308 312 312 305 304 306 303 313 310 314 315 321 339 2 49 37 37 45 64 62 75 96 111 53 348 297 280 269 260 261 213 51 103 123 141 158 169 176 184 179
281 285 292 296 299 307 310 306 305 306 289 296 287 284 284 304 304 309 30 26 34 75 52 58 83 61 328 307 256 305 293 278 276 279 269 271 227 154 137 162 161 175 182 185 193
276 280 286 292 297 298 298 296 313 310 293 290 291 284 278 270 273 267 170 5 33 83 80 74 68 36 2 328 319 312 279 283 264 285 264 257 286 35 111 170 191 183 198 207 197
269 274 280 287 289 292 293 308 307 312 288 287 291 284 268 267 269 262 217 322 0 125 74 77 74 65 29 322 270 288 298 284 275 288 291 258 298 320 2 131 174 192 184 193 200
262 266 271 272 284 286 298 313 333 308 287 294 285 294 276 234 286 216 235 288 130 80 63 71 74 87 80 346 285 259 285 292 278 290 313 311 329 352 332 94 177 189 192 188 182
256 258 262 265 265 276 289 304 298 280 276 289 299 278 263 254 262 242 242 281 307 23 7 54 51 64 85 310 296 268 278 288 289 291 299 322 338 339 359 336 248 201 198 197 194
251 252 252 256 258 263 274 279 267 264 283 278 282 284 259 250 249 244 198 206 193 189 155 353 56 22 332 319 286 276 284 294 301 298 299 316 330 322 300 288 279 262 185 200 201
248 248 248 248 254 257 254 259 258 267 255 287 285 278 260 253 249 251 212 199 254 269 337 133 7 104 74 310 293 287 292 300 298 302 306 304 300 318 334 342 289 272 257 273 189
244 245 244 243 242 247 238 247 255 256 267 260 277 267 263 254 248 246 244 211 208 231 199 9 4 11 349 301 291 298 290 299 310 303 302 312 300 307 338 325 323 330 310 257 246
238 241 241 239 235 237 237 244 251 255 259 266 255 267 258 250 245 238 247 256 245 233 262 315 346 12 327 301 295 294 314 295 301 293 294 310 311 309 311 315 326 324 314 315 315
238 238 239 232 228 231 232 242 240 251 253 256 261 254 263 252 243 244 247 262 250 229 261 271 306 336 336 304 290 295 292 299 310 315 301 308 309 348 328 310 318 312 304 311 310
234 236 230 216 223 228 231 237 245 240 248 251 257 254 255 255 246 245 245 252 260 232 230 254 296 267 250 299 300 294 282 292 290 304 307 287 314 326 329 316 304 302 303 323 336
238 236 227 216 224 225 233 232 239 241 239 246 248 249 257 257 250 244 248 260 255 242 228 242 280 287 299 309 297 294 284 284 295 299 310 292 325 353 328 316 308 297 296 307 321
233 229 228 221 225 227 228 233 232 239 243 241 247 244 251 253 256 251 249 259 257 264 253 216 274 282 216 235 301 291 289 282 284 285 291 289 295 323 315 304 298 296 295 300 304
227 237 230 219 222 226 229 233 228 234 237 240 243 241 244 247 254 248 256 258 262 262 265 253 271 281 289 287 277 273 289 283 275 290 297 294 298 309 312 308 309 309 307 309 312
226 234 229 228 220 224 228 231 229 228 234 237 240 241 239 244 245 250 254 260 260 260 258 264 275 285 292 304 296 284 286 282 285 298 296 291 296 304 303 306 313 322 328 325 323
230 234 227 225 220 222 225 229 230 229 234 240 239 243 241 241 246 253 264 266 265 264 263 265 264 280 285 302 305 244 247 268 293 301 303 300 304 308 304 304 309 317 327 334 337